Location: Allen Lane School
(37.8198°N, 89.7382°W)
Time: 09:07:53
(UTC+00:00)

Hubble Space Telescope - Pass Details

Date: 12 December 2022
Orbit: 529 x 532 km, 28.5° (Epoch: 27 January)

Event Time Altitude Azimuth Distance (km) Brightness Sun altitude
Exits shadow 12:12:45 - 246° (WSW) 2,184 3.5 -10.2°
Reaches altitude 10° 12:14:07 10° 235° (SW) 1,765 3.1 -9.9°
Maximum altitude 12:17:02 19° 189° (S) 1,293 2.9 -9.4°
Drops below altitude 10° 12:19:56 10° 143° (SE) 1,761 4.4 -8.9°
Sets 12:22:40 0° 125° (SE) 2,648 6.3 -8.4°
